Weather History for KADG - September, 2012

Change the Weather History Date:

Wednesday, September 26, 2012

  Actual Average Record
Temperature  
Mean Temperature 64 °F -  
Max Temperature 73 °F 70 °F 89 °F (1998)
Min Temperature 55 °F 46 °F 34 °F (1966)
Degree Days  
Heating Degree Days 2    
Growing Degree Days 14 (Base 50)    
Moisture  
Dew Point 58 °F    
Average Humidity 88    
Maximum Humidity 100    
Minimum Humidity 66    
Precipitation  
Precipitation 0.01 in - - ()
Sea Level Pressure  
Sea Level Pressure 29.98 in    
Wind  
Wind Speed 3 mph (SW)    
Max Wind Speed 12 mph    
Max Gust Speed -    
Visibility 4 miles    
Events Fog    
Averages and records for this station are not official NWS values.
T = Trace of Precipitation, MM = Missing Value Source: NWS Daily Summary

Daily Weather History Graph

Daily Weather History Graph

Search for Another Location

Airport or City:

Trip Planner

Search our weather history database for the weather conditions in past years. The results will help you decide how hot, cold, wet, or windy it might be!

Date:

Astronomy

Sep. 26, 2012 Rise Set
Actual Time 7:28 AM EDT 7:25 PM EDT
Civil Twilight 7:00 AM EDT 7:53 PM EDT
Nautical Twilight 6:28 AM EDT 8:25 PM EDT
Astronomical Twilight 5:55 AM EDT 8:58 PM EDT
Moon 5:26 PM EDT (9/26) 3:50 AM EDT (9/26)
Length of Visible Light 12h 52m
Length of Day
11h 57m
Waxing Gibbous, 88% of the Moon is Illuminated
Sep 26
Waxing Gibbous
Sep 29
Full
Oct 8
Last Quarter
Oct 15
New
Oct 21
First Quarter

Hourly Weather History & Observations

Time (EDT) Temp. Dew Point Humidity Pressure Visibility Wind Dir Wind Speed Gust Speed Precip Events Conditions
12:53 AM 59.0 °F 57.0 °F 93% 29.93 in 3.0 mi SW 4.6 mph - N/A   Mostly Cloudy
1:02 AM 59.0 °F 57.2 °F 94% 29.92 in 3.0 mi SW 6.9 mph - N/A   Mostly Cloudy
1:14 AM 59.0 °F 57.2 °F 94% 29.93 in 3.0 mi SW 5.8 mph - N/A   Scattered Clouds
1:29 AM 57.2 °F 57.2 °F 100% 29.92 in 2.5 mi SW 3.5 mph - N/A   Partly Cloudy
1:53 AM 59.0 °F 57.0 °F 93% 29.93 in 2.5 mi Calm Calm - N/A   Partly Cloudy
2:09 AM 59.0 °F 57.2 °F 94% 29.91 in 1.8 mi Calm Calm - N/A   Scattered Clouds
2:18 AM 57.2 °F 57.2 °F 100% 29.92 in 1.2 mi Calm Calm - N/A   Scattered Clouds
2:30 AM 57.2 °F 57.2 °F 100% 29.92 in 0.2 mi SSW 3.5 mph - N/A Fog Fog
2:38 AM 55.4 °F 55.4 °F 100% 29.92 in 0.2 mi SSW 3.5 mph - N/A Fog Fog
2:53 AM 57.0 °F 57.0 °F 100% 29.93 in 0.2 mi Calm Calm - N/A Fog Fog
3:06 AM 57.2 °F 57.2 °F 100% 29.92 in 0.5 mi Calm Calm - N/A Fog Fog
3:17 AM 57.2 °F 57.2 °F 100% 29.92 in 1.5 mi South 3.5 mph - N/A   Overcast
4:35 AM 59.0 °F 57.2 °F 94% 29.91 in 1.8 mi Calm Calm - N/A   Overcast
4:53 AM 59.0 °F 57.9 °F 96% 29.91 in 1.5 mi Calm Calm - N/A   Overcast
5:07 AM 59.0 °F 57.2 °F 94% 29.90 in 1.5 mi Calm Calm - N/A   Overcast
5:25 AM 60.8 °F 59.0 °F 94% 29.90 in 1.2 mi Calm Calm - N/A   Overcast
5:49 AM 60.8 °F 57.2 °F 88% 29.91 in 1.0 mi Calm Calm - N/A   Overcast
5:53 AM 60.1 °F 59.0 °F 96% 29.91 in 0.8 mi Calm Calm - N/A   Overcast
6:53 AM 60.1 °F 59.0 °F 96% 29.93 in 0.5 mi Calm Calm - 0.01 in Fog Fog
8:44 AM 60.8 °F 60.8 °F 100% 29.96 in 1.0 mi Calm Calm - N/A   Overcast
8:53 AM 61.0 °F 60.1 °F 97% 29.96 in 1.0 mi Calm Calm - N/A   Overcast
9:00 AM 60.8 °F 60.8 °F 100% 29.96 in 1.0 mi Calm Calm - N/A   Overcast
9:33 AM 62.6 °F 60.8 °F 94% 29.97 in 1.2 mi Calm Calm - N/A   Overcast
9:53 AM 62.1 °F 61.0 °F 96% 29.98 in 1.5 mi SSW 5.8 mph - N/A   Overcast
10:20 AM 64.4 °F 62.6 °F 94% 29.97 in 1.8 mi SSW 5.8 mph - N/A   Overcast
10:31 AM 64.4 °F 62.6 °F 94% 29.98 in 2.0 mi WSW 3.5 mph - N/A   Overcast
10:53 AM 64.9 °F 62.1 °F 90% 29.99 in 3.0 mi West 3.5 mph - N/A   Overcast
11:04 AM 66.2 °F 62.6 °F 88% 29.98 in 3.0 mi Variable 4.6 mph - N/A   Overcast
11:18 AM 66.2 °F 62.6 °F 88% 29.98 in 4.0 mi WSW 4.6 mph - N/A   Haze
11:53 AM 70.0 °F 62.1 °F 76% 29.99 in 7.0 mi Variable 4.6 mph - N/A   Mostly Cloudy
12:28 PM 69.8 °F 60.8 °F 73% 29.99 in 9.0 mi WSW 4.6 mph - N/A   Overcast
12:51 PM 71.6 °F 60.8 °F 69% 29.99 in 9.0 mi WNW 4.6 mph - N/A   Mostly Cloudy
12:53 PM 71.1 °F 61.0 °F 70% 29.99 in 9.0 mi SW 3.5 mph - N/A   Mostly Cloudy
1:31 PM 71.6 °F 60.8 °F 69% 29.99 in 10.0 mi Variable 5.8 mph - N/A   Mostly Cloudy
1:45 PM 71.6 °F 60.8 °F 69% 29.99 in 10.0 mi West 6.9 mph - N/A   Scattered Clouds
1:53 PM 72.0 °F 60.1 °F 66% 29.99 in 10.0 mi West 6.9 mph - N/A   Mostly Cloudy
2:53 PM 72.0 °F 61.0 °F 68% 29.99 in 8.0 mi North 10.4 mph - N/A   Partly Cloudy
3:53 PM 69.1 °F 59.0 °F 70% 30.01 in 8.0 mi NNE 11.5 mph - N/A   Clear
4:53 PM 66.9 °F 57.9 °F 73% 30.02 in 9.0 mi North 6.9 mph - N/A   Clear
5:53 PM 66.9 °F 57.0 °F 70% 30.03 in 10.0 mi North 9.2 mph - N/A   Clear
6:53 PM 64.9 °F 57.0 °F 75% 30.04 in 10.0 mi NNE 4.6 mph - N/A   Clear
7:53 PM 63.0 °F 55.9 °F 78% 30.07 in 10.0 mi Calm Calm - N/A   Clear
8:53 PM 59.0 °F 55.9 °F 90% 30.10 in 7.0 mi Calm Calm - N/A   Clear
9:53 PM 59.0 °F 55.9 °F 90% 30.12 in 6.0 mi ESE 5.8 mph - N/A   Partly Cloudy
10:23 PM 57.2 °F 55.4 °F 94% 30.12 in 9.0 mi East 5.8 mph - N/A   Mostly Cloudy
10:53 PM 57.9 °F 53.1 °F 84% 30.13 in 10.0 mi East 10.4 mph - N/A   Overcast
11:53 PM 57.0 °F 46.9 °F 69% 30.15 in 10.0 mi East 8.1 mph - N/A   Mostly Cloudy